User: anonymous   Login
Location: Norwich
(52.6280°N, 1.3030°E)
Time: 11:03:41
(UTC+00:00)
Language:

APEX - Orbit

View from above orbital plane
View from above orbital plane
View from above satellite
View from above satellite

Ground track
Ground track

The orbit data is extracted from the following two-line orbital elements,

1 23191U 94046A   17349.88214958 +.00004086 +00000-0 +13576-3 0  9991
2 23191 069.9194 157.8885 0591734 352.5720 006.6912 14.41089178142667
Epoch (UTC): 15 December 2017 21:10:17
Eccentricity: 0.0591734
inclination: 69.9194°
perigee height: 333 km
apogee height: 1177 km
right ascension of ascending node: 157.8885°
argument of perigee: 352.5720°
revolutions per day: 14.41089178
mean anomaly at epoch: 6.6912°
orbit number at epoch: 14266

The dashed part of the orbit path shows where the satellite is in the earth's shadow,  

DLR